Flag for Switzerland Weather past 2 weeks in Meyrin, Geneva, Switzerland

Now
88 °F

Passing clouds.


Feels Like: 87 °F
Forecast: 64 / 95 °F
Wind: 5 mph from Southwest

Location: Geneva Cointrin Airport

Current Time: Jul 4, 2015 at 10:01:08 PM

Latest Report: Jul 4, 2015 at 9:20 PM


Visibility: N/A

Pressure: 30.12 "Hg

Humidity: 35%

Dew point: 57 °F

Location of MeyrinLocation

Historic Weather in Meyrin — Graph

°F

Meyrin temperature yesterday

Maximum temperature yesterday: 97 °F (at 4:20 PM)
Minimum temperature yesterday: 66 °F (at 5:20 AM)
Average temperature yesterday: 82 °F

Past Weeks' High & Low Weather Summary

 TemperatureHumidityPressure
High99 °F (Jul 4, 4:20 PM)100% (Jun 22, 5:50 AM)30.27 "Hg (Jun 22, 5:50 AM)
Low48 °F (Jun 24, 3:50 AM)18% (Jul 4, 4:20 PM)29.83 "Hg (Jun 22, 8:50 PM)
Average72 °F54%30.13 "Hg
* Reported Jun 19 8:20 PM — Jul 4 8:50 PM, Meyrin, Weather by CustomWeather, © 2015

Note: Actual official high and low records may vary slightly from our data, if they occured in-between our weather recording intervals... More about our weather records

Advertising

Meyrin weather history for previous 24 hours

 ConditionsComfort  
Time TempWeatherWind HumidityBarometerVisibility
8:50 PM
Sat, Jul 4
91 °FSunny.7 mph34%30.12 "Hg10 mi
8:20 PM93 °FSunny.7 mph30%30.12 "Hg10 mi
7:50 PM95 °FSunny.8 mph28%30.12 "Hg10 mi
7:20 PM95 °FSunny.14 mph28%30.12 "Hg10 mi
6:50 PM97 °FPassing clouds.13 mph23%30.12 "HgN/A
6:20 PM99 °FPassing clouds.14 mph25%30.15 "HgN/A
5:50 PM97 °FPassing clouds.13 mph20%30.15 "HgN/A
5:20 PM97 °FScattered clouds.15 mph20%30.15 "HgN/A
4:50 PM99 °FPassing clouds.12 mph19%30.15 "HgN/A
4:20 PM99 °FPassing clouds.13 mph18%30.15 "HgN/A
3:50 PM97 °FPassing clouds.10 mph22%30.15 "HgN/A
3:20 PM97 °FScattered clouds.10 mph23%30.15 "HgN/A
2:50 PM97 °FPassing clouds.8 mph25%30.18 "HgN/A
2:20 PM97 °FSunny.10 mph27%30.18 "Hg10 mi
1:50 PM95 °FPassing clouds.9 mph25%30.18 "HgN/A
1:20 PM93 °FPassing clouds.8 mph30%30.21 "HgN/A
12:50 PM91 °FPassing clouds.7 mph32%30.21 "HgN/A
12:20 PM91 °FPassing clouds.6 mph32%30.21 "HgN/A
11:50 AM90 °FSunny.3 mph33%30.21 "Hg10 mi
11:20 AM88 °FPassing clouds.7 mph35%30.21 "HgN/A
10:50 AM88 °FPassing clouds.5 mph35%30.21 "HgN/A
10:20 AM84 °FSunny.7 mph37%30.24 "Hg10 mi
9:50 AM84 °FPassing clouds.6 mph37%30.24 "HgN/A
9:20 AM82 °FPassing clouds.7 mph42%30.24 "HgN/A
8:50 AM81 °FSunny.9 mph45%30.24 "Hg10 mi
8:20 AM79 °FPassing clouds.5 mph51%30.24 "HgN/A
7:50 AM77 °FSunny.1 mph54%30.24 "Hg10 mi
7:20 AM72 °FSunny.3 mph73%30.24 "Hg10 mi
6:50 AM70 °FSunny.1 mph73%30.24 "Hg10 mi
6:20 AM70 °FClear.3 mph69%30.24 "Hg10 mi
5:50 AM68 °FClear.1 mph73%30.24 "Hg10 mi
5:20 AM66 °FClear.2 mph83%30.21 "Hg10 mi
4:50 AM70 °FClear.6 mph73%30.21 "Hg10 mi
4:20 AM70 °FClear.3 mph73%30.21 "Hg10 mi
3:50 AM70 °FPassing clouds.3 mph73%30.21 "HgN/A
2:50 AM70 °FClear.2 mph73%30.21 "Hg10 mi
2:20 AM72 °FClear.No wind73%30.21 "Hg10 mi
1:50 AM73 °FClear.1 mph65%30.21 "Hg10 mi
1:20 AM73 °FClear.2 mph65%30.21 "Hg10 mi
12:50 AM73 °FClear.1 mph65%30.21 "Hg10 mi
12:20 AM75 °FClear.1 mph61%30.21 "Hg10 mi
11:50 PM
Fri, Jul 3
75 °FClear.1 mph65%30.21 "Hg10 mi
11:20 PM79 °FClear.1 mph54%30.21 "Hg10 mi
10:50 PM79 °FClear.2 mph58%30.18 "Hg10 mi
10:20 PM79 °FSunny.2 mph58%30.18 "Hg10 mi
Weather by CustomWeather, © 2015

See weather overviewHow to use our weather pages